This demonstration page uses our WeatherBlox Daily Observations layout. Learn more.

Left ArrowRight Arrow

30.21309, -93.2044

Hourly Observations for April 17, 2022

Temp ( °F °C ) Dew Point ( °F °C ) Humidity (%) Winds ( mph kmh ) Pressure ( in mb ) Visibility ( mi km ) Precip ( " mm )
12:15 am 00:15 Partly Cloudy with Mist and Fog 73 22.5 71 21.4 94 94 S 5 7 29.94 1014 5 8 0.00 0.00
12:35 am 00:35 Mostly Cloudy with Mist and Fog 72 22.3 71 21.4 95 95 S 5 7 29.94 1014 5 8 0.00 0.00
12:55 am 00:55 Mostly Cloudy with Mist and Fog 72 22 70 21.1 95 95 SE 6 9 29.92 1013 4 6 0.00 0.00
1:15 am 01:15 Mostly Cloudy with Mist and Fog 72 22.2 71 21.4 95 95 SSE 6 9 29.93 1014 4 6 0.00 0.00
1:35 am 01:35 Cloudy with Mist and Fog 73 22.7 71 21.9 95 95 S 7 11 29.93 1014 4 6 0.00 0.00
1:55 am 01:55 Cloudy with Mist and Fog 73 22.7 71 21.9 95 95 S 9 15 29.93 1014 5 8 0.00 0.00
2:15 am 02:15 Cloudy with Mist and Fog 73 22.9 71 21.9 94 94 S 9 15 29.92 1013 5 8 0.00 0.00
2:35 am 02:35 Cloudy with Mist and Fog 73 22.9 71 21.8 94 94 S 7 11 29.91 1013 7 11 0.00 0.00
2:55 am 02:55 Cloudy 73 22.9 71 21.8 94 94 S 7 11 29.91 1013 7 11 0.00 0.00
3:15 am 03:15 Cloudy with Mist and Fog 73 22.9 71 21.8 94 94 S 6 9 29.90 1013 7 11 0.00 0.00
3:35 am 03:35 Cloudy with Mist and Fog 73 22.8 71 21.8 94 94 SSE 5 7 29.90 1013 7 11 0.00 0.00
3:55 am 03:55 Cloudy with Mist and Fog 73 22.8 71 21.8 94 94 S 5 7 29.90 1013 7 11 0.00 0.00
4:15 am 04:15 Cloudy with Mist and Fog 73 22.7 71 21.7 94 94 Calm 29.91 1013 5 8 0.00 0.00
4:35 am 04:35 Cloudy with Mist and Fog 73 22.7 71 21.8 95 95 SSE 3 6 29.91 1013 5 8 0.00 0.00
4:55 am 04:55 Cloudy with Mist and Fog 73 22.8 71 21.9 95 95 SSE 3 6 29.91 1013 5 8 0.00 0.00
5:15 am 05:15 Cloudy with Mist and Fog 73 22.7 71 21.7 94 94 SSE 6 9 29.90 1013 7 11 0.00 0.00
5:35 am 05:35 Cloudy with Mist and Fog 73 22.6 71 21.7 95 95 SSE 5 7 29.90 1013 5 8 0.00 0.00
6:00 am 06:00 Mostly Cloudy 73 23 72 22 94 94 Calm 29.90 1013 7 11 0.00 0.00
6:45 am 06:45 Mostly Cloudy with Mist and Fog 73 23 72 22 94 94 Calm 29.91 1013 5 8 0.00 0.00
7:45 am 07:45 Mostly Cloudy with Mist and Fog 73 23 72 22 94 94 Calm 29.91 1013 5 8 0.00 0.00
8:50 am 08:50 Mostly Cloudy with Mist and Fog 75 24 72 22 89 89 SSE 13 20 29.91 1013 6 10 0.00 0.00
9:50 am 09:50 Cloudy 79 26 72 22 79 79 S 13 20 29.94 1014 7 11 0.00 0.00
10:55 am 10:55 Mostly Cloudy 81 27 72 22 74 74 SSW 13 20 29.95 1014 7 11 0.00 0.00
11:53 am 11:53 Mostly Cloudy 79 26 72 22 79 79 SSW 15 24 29.96 1015 7 11 0.00 0.00
12:50 pm 12:50 Mostly Cloudy 81 27 72 22 74 74 SSW 15 24 29.94 1014 7 11 0.00 0.00
1:45 pm 13:45 Mostly Cloudy 81 27 70 21 70 70 SSW 15 24 29.91 1013 7 11 0.00 0.00
2:54 pm 14:54 Mostly Cloudy 81 27 70 21 70 70 SSW 16 26 29.90 1013 10 16 0.00 0.00
3:54 pm 15:54 Mostly Cloudy 82 28 70 21 66 66 SW 18 30 29.87 1011 10 16 0.00 0.00
4:55 pm 16:55 Mostly Cloudy 81 27 70 21 70 70 SSW 17 28 29.86 1011 10 16 0.00 0.00
5:50 pm 17:50 Partly Cloudy 81 27 70 21 70 70 SSW 15 24 29.85 1011 10 16 0.00 0.00
6:51 pm 18:51 Partly Cloudy 81 27 70 21 70 70 SW 14 22 29.85 1011 10 16 0.00 0.00
7:46 pm 19:46 Partly Cloudy 79 26 70 21 74 74 SW 12 19 29.85 1011 10 16 0.00 0.00
8:54 pm 20:54 Mostly Cloudy 77 25 70 21 79 79 WSW 9 15 29.87 1011 10 16 0.00 0.00
9:55 pm 21:55 Mostly Cloudy 75 24 70 21 83 83 WSW 9 15 29.89 1012 10 16 0.00 0.00
10:15 pm 22:15 Partly Cloudy 76 24.4 69 20.5 79 79 W 9 15 29.89 1012 10 16 0.00 0.00
10:35 pm 22:35 Clear 76 24.2 69 20.7 81 81 WSW 8 13 29.90 1013 10 16 0.00 0.00
10:55 pm 22:55 Clear 75 23.7 69 20.7 83 83 SW 6 9 29.90 1013 10 16 0.00 0.00
11:15 pm 23:15 Clear 74 23.5 70 20.9 85 85 WSW 5 7 29.91 1013 10 16 0.00 0.00
11:35 pm 23:35 Clear 74 23.4 70 20.9 86 86 WSW 5 7 29.92 1013 10 16 0.00 0.00
11:55 pm 23:55 Mostly Cloudy 74 23.6 70 21.1 86 86 WSW 6 9 29.93 1014 10 16 0.00 0.00

Powered by AerisWeather